When you browse on this site, cookies collect data to enhance your experience and personalize the content and advertising you see.
Visit our Privacy Policy to learn more. By continuing to use the site, you agree to this use of cookies and data.
  • In Czech Republic
  • List of Countries
  • For 7 days
  • Water Temperature
  • Weather Map
  • Weather Widgets
  • user-avatar
    Login

    Hourly Weather Mazatenango

    Today, 19 October, Saturday

    Time Temperature Precipitation Wind Pressure Humidity
    00:00 +24°C° 0.5 mm 1 mps 726 mmHg 94%
    01:00 +24°C° 0 mm 1 mps 725 mmHg 93%
    02:00 +24°C° 0 mm 1 mps 725 mmHg 93%
    03:00 +24°C° 0 mm 1 mps 725 mmHg 92%
    04:00 +24°C° 0 mm 1 mps 725 mmHg 92%
    05:00 +23°C° 0 mm 1 mps 725 mmHg 91%
    06:00 +23°C° 0 mm 1 mps 725 mmHg 90%
    07:00 +25°C° 0 mm 1 mps 726 mmHg 85%
    08:00 +27°C° 0 mm 1 mps 726 mmHg 79%
    09:00 +30°C° 0 mm 1 mps 727 mmHg 73%
    10:00 +30°C° 0.1 mm 1 mps 726 mmHg 74%
    11:00 +30°C° 0.1 mm 2 mps 726 mmHg 75%
    12:00 +30°C° 0.1 mm 2 mps 725 mmHg 76%
    13:00 +30°C° 1 mm 2 mps 725 mmHg 81%
    14:00 +29°C° 1 mm 2 mps 724 mmHg 85%
    15:00 +28°C° 1 mm 1 mps 723 mmHg 90%
    16:00 +27°C° 0.5 mm 1 mps 724 mmHg 92%
    17:00 +27°C° 0.5 mm 1 mps 724 mmHg 94%
    18:00 +24°C° 0.5 mm 0 mps 724 mmHg 96%
    19:00 +23°C° 0.1 mm 0 mps 725 mmHg 96%
    20:00 +25°C° 0.1 mm 1 mps 725 mmHg 95%
    21:00 +25°C° 0.1 mm 1 mps 726 mmHg 95%
    22:00 +24°C° 0 mm 1 mps 726 mmHg 94%
    23:00 +24°C° 0 mm 1 mps 726 mmHg 93%

    Tomorrow, 20 October, Sunday

    Time Temperature Precipitation Wind Pressure Humidity
    00:00 +24°C° 0 mm 1 mps 726 mmHg 92%
    01:00 +24°C° 0 mm 1 mps 725 mmHg 90%
    02:00 +23°C° 0 mm 1 mps 725 mmHg 89%
    03:00 +23°C° 0 mm 1 mps 724 mmHg 87%
    04:00 +23°C° 0 mm 2 mps 725 mmHg 86%
    05:00 +23°C° 0 mm 2 mps 725 mmHg 84%
    06:00 +23°C° 0 mm 2 mps 725 mmHg 82%
    07:00 +25°C° 0 mm 1 mps 726 mmHg 78%
    08:00 +27°C° 0 mm 1 mps 726 mmHg 74%
    09:00 +29°C° 0 mm 1 mps 727 mmHg 71%
    10:00 +30°C° 0.2 mm 1 mps 726 mmHg 71%
    11:00 +30°C° 0.2 mm 1 mps 726 mmHg 72%
    12:00 +31°C° 0.2 mm 2 mps 726 mmHg 72%
    13:00 +30°C° 1.2 mm 1 mps 725 mmHg 77%
    14:00 +29°C° 1.2 mm 1 mps 725 mmHg 83%
    15:00 +28°C° 1.2 mm 1 mps 724 mmHg 88%
    16:00 +28°C° 1.5 mm 1 mps 724 mmHg 90%
    17:00 +27°C° 1.5 mm 1 mps 725 mmHg 93%
    18:00 +26°C° 1.5 mm 1 mps 725 mmHg 95%
    19:00 +25°C° 0.1 mm 1 mps 725 mmHg 95%
    20:00 +25°C° 0.1 mm 1 mps 726 mmHg 95%
    21:00 +24°C° 0.1 mm 1 mps 726 mmHg 95%
    22:00 +24°C° 0 mm 1 mps 726 mmHg 94%
    23:00 +24°C° 0 mm 1 mps 726 mmHg 93%

    Day after tomorrow, 21 October, Monday

    Time Temperature Precipitation Wind Pressure Humidity
    00:00 +24°C° 0 mm 1 mps 726 mmHg 92%
    01:00 +24°C° 0 mm 1 mps 726 mmHg 92%
    02:00 +23°C° 0 mm 1 mps 726 mmHg 92%
    03:00 +23°C° 0 mm 1 mps 725 mmHg 91%
    04:00 +23°C° 0 mm 1 mps 725 mmHg 90%
    05:00 +23°C° 0 mm 1 mps 726 mmHg 89%
    06:00 +23°C° 0 mm 1 mps 726 mmHg 89%
    07:00 +25°C° 0 mm 1 mps 726 mmHg 82%
    08:00 +27°C° 0 mm 1 mps 727 mmHg 76%
    09:00 +29°C° 0 mm 1 mps 727 mmHg 70%
    10:00 +30°C° 0 mm 1 mps 727 mmHg 68%
    11:00 +31°C° 0 mm 2 mps 727 mmHg 65%
    12:00 +32°C° 0 mm 2 mps 726 mmHg 63%
    13:00 +31°C° 0.5 mm 2 mps 726 mmHg 71%
    14:00 +30°C° 0.5 mm 2 mps 725 mmHg 79%
    15:00 +28°C° 0.5 mm 2 mps 724 mmHg 87%
    16:00 +28°C° 0.3 mm 1 mps 725 mmHg 90%
    17:00 +27°C° 0.3 mm 1 mps 725 mmHg 92%
    18:00 +24°C° 0.3 mm 0 mps 725 mmHg 95%
    19:00 +23°C° 0.1 mm 0 mps 725 mmHg 95%
    20:00 +25°C° 0.1 mm 1 mps 726 mmHg 94%
    21:00 +24°C° 0.1 mm 1 mps 726 mmHg 94%
    22:00 +24°C° 0 mm 1 mps 726 mmHg 93%
    23:00 +24°C° 0 mm 1 mps 726 mmHg 92%

    22 October, Tuesday

    Time Temperature Precipitation Wind Pressure Humidity
    00:00 +23°C° 0 mm 1 mps 726 mmHg 92%
    01:00 +23°C° 0 mm 1 mps 726 mmHg 91%
    02:00 +23°C° 0 mm 1 mps 726 mmHg 90%
    03:00 +23°C° 0 mm 1 mps 725 mmHg 89%
    04:00 +23°C° 0 mm 1 mps 725 mmHg 87%
    05:00 +23°C° 0 mm 1 mps 726 mmHg 86%
    06:00 +23°C° 0 mm 1 mps 726 mmHg 84%
    07:00 +25°C° 0 mm 1 mps 726 mmHg 79%
    08:00 +27°C° 0 mm 1 mps 727 mmHg 74%
    09:00 +29°C° 0 mm 1 mps 727 mmHg 69%
    10:00 +30°C° 0.1 mm 1 mps 727 mmHg 68%
    11:00 +31°C° 0.1 mm 2 mps 726 mmHg 67%
    12:00 +32°C° 0.1 mm 2 mps 726 mmHg 66%
    13:00 +31°C° 0.9 mm 2 mps 725 mmHg 72%
    14:00 +30°C° 0.9 mm 2 mps 724 mmHg 78%
    15:00 +29°C° 0.9 mm 1 mps 724 mmHg 84%
    16:00 +28°C° 0.8 mm 1 mps 724 mmHg 88%
    17:00 +27°C° 0.8 mm 1 mps 724 mmHg 91%
    18:00 +26°C° 0.8 mm 1 mps 725 mmHg 95%
    19:00 +25°C° 1.5 mm 1 mps 725 mmHg 95%
    20:00 +25°C° 1.5 mm 1 mps 726 mmHg 95%
    21:00 +25°C° 1.5 mm 1 mps 726 mmHg 94%
    22:00 +24°C° 0.2 mm 1 mps 726 mmHg 94%
    23:00 +24°C° 0.2 mm 1 mps 726 mmHg 93%

    23 October, Wednesday

    Time Temperature Precipitation Wind Pressure Humidity
    00:00 +24°C° 0.2 mm 1 mps 725 mmHg 92%
    01:00 +24°C° 0 mm 1 mps 725 mmHg 91%
    02:00 +23°C° 0 mm 1 mps 725 mmHg 90%
    03:00 +23°C° 0 mm 1 mps 724 mmHg 89%
    04:00 +23°C° 0 mm 1 mps 725 mmHg 88%
    05:00 +23°C° 0 mm 1 mps 725 mmHg 86%
    06:00 +23°C° 0 mm 1 mps 725 mmHg 85%
    07:00 +25°C° 0 mm 1 mps 725 mmHg 80%
    08:00 +27°C° 0 mm 1 mps 726 mmHg 76%
    09:00 +29°C° 0 mm 1 mps 726 mmHg 71%
    10:00 +30°C° 0.3 mm 1 mps 726 mmHg 71%
    11:00 +30°C° 0.3 mm 1 mps 725 mmHg 72%
    12:00 +31°C° 0.3 mm 2 mps 725 mmHg 72%
    13:00 +30°C° 1.2 mm 1 mps 724 mmHg 76%
    14:00 +30°C° 1.2 mm 1 mps 724 mmHg 81%
    15:00 +29°C° 1.2 mm 1 mps 723 mmHg 85%
    16:00 +28°C° 0.4 mm 1 mps 723 mmHg 89%
    17:00 +25°C° 0.4 mm 0 mps 724 mmHg 92%
    18:00 +24°C° 0.4 mm 0 mps 724 mmHg 96%
    19:00 +24°C° 1 mm 0 mps 724 mmHg 95%
    20:00 +24°C° 1 mm 0 mps 725 mmHg 95%
    21:00 +23°C° 1 mm 0 mps 725 mmHg 95%
    22:00 +25°C° 3 mm 1 mps 725 mmHg 95%
    23:00 +25°C° 3 mm 1 mps 725 mmHg 96%

    24 October, Thursday

    Time Temperature Precipitation Wind Pressure Humidity
    00:00 +25°C° 3 mm 1 mps 725 mmHg 96%
    01:00 +25°C° 0.9 mm 1 mps 725 mmHg 95%
    02:00 +24°C° 0.9 mm 1 mps 725 mmHg 94%
    03:00 +24°C° 0.9 mm 1 mps 724 mmHg 93%
    04:00 +24°C° 0.2 mm 1 mps 724 mmHg 93%
    05:00 +24°C° 0.2 mm 1 mps 724 mmHg 92%
    06:00 +24°C° 0.2 mm 1 mps 725 mmHg 91%
    07:00 +25°C° 0 mm 1 mps 725 mmHg 88%
    08:00 +24°C° 0 mm 0 mps 725 mmHg 85%
    09:00 +26°C° 0 mm 0 mps 726 mmHg 81%
    10:00 +28°C° 0.4 mm 1 mps 725 mmHg 80%
    11:00 +29°C° 0.4 mm 1 mps 725 mmHg 78%
    12:00 +30°C° 0.4 mm 1 mps 725 mmHg 76%
    13:00 +29°C° 0.9 mm 1 mps 724 mmHg 79%
    14:00 +29°C° 0.9 mm 1 mps 724 mmHg 82%
    15:00 +28°C° 0.9 mm 1 mps 723 mmHg 85%
    16:00 +28°C° 1.5 mm 1 mps 723 mmHg 88%
    17:00 +27°C° 1.5 mm 1 mps 723 mmHg 92%
    18:00 +24°C° 1.5 mm 0 mps 724 mmHg 95%
    19:00 +25°C° 0.6 mm 1 mps 724 mmHg 95%
    20:00 +25°C° 0.6 mm 1 mps 725 mmHg 95%
    21:00 +24°C° 0.6 mm 1 mps 725 mmHg 95%
    22:00 +24°C° 0.2 mm 1 mps 725 mmHg 94%
    23:00 +24°C° 0.2 mm 1 mps 725 mmHg 94%
    Show more